This demonstration page uses our WeatherBlox Daily Observations layout. Learn more.

Left ArrowRight Arrow

39.51506, -84.39828

Hourly Observations for October 24, 2021

Temp ( °F °C ) Dew Point ( °F °C ) Humidity (%) Winds ( mph kmh ) Pressure ( in mb ) Visibility ( mi km ) Precip ( " mm )
12:15 am 00:15 Cloudy 54 12.2 47 8.5 78 78 N N/A 30.05 1018 10 16 N/A
12:35 am 00:35 Cloudy 54 12 50 9.9 87 87 ESE 5 7 30.04 1017 10 16 N/A
12:55 am 00:55 Cloudy 55 12.5 47 8.2 75 75 N N/A 30.04 1017 10 16 N/A
1:15 am 01:15 Cloudy 53 11.8 50 10.1 89 89 NNE 3 6 30.04 1017 10 16 N/A
1:35 am 01:35 Cloudy 54 12.3 48 9 80 80 N N/A 30.05 1018 10 16 N/A
1:55 am 01:55 Cloudy 55 12.5 48 8.9 79 79 E 5 7 30.05 1018 10 16 N/A
2:15 am 02:15 Cloudy 54 12.4 49 9.5 83 83 SE 3 6 30.06 1018 10 16 N/A
2:35 am 02:35 Cloudy 54 12.2 50 10.2 88 88 N N/A 30.06 1018 10 16 N/A
2:55 am 02:55 Cloudy 54 12 50 9.9 87 87 E 7 11 30.05 1018 10 16 N/A
3:15 am 03:15 Cloudy 53 11.5 51 10.7 95 95 ESE 3 6 30.06 1018 10 16 N/A
3:35 am 03:35 Cloudy 53 11.5 51 10.8 96 96 ESE 3 6 30.05 1017 10 16 N/A
3:55 am 03:55 Cloudy 53 11.5 52 10.9 96 96 N N/A 30.05 1017 10 16 N/A
4:15 am 04:15 Cloudy 53 11.5 52 11.1 97 97 NE 3 6 30.04 1017 10 16 N/A
4:35 am 04:35 Cloudy 53 11.5 52 11.1 97 97 NE 5 7 30.03 1017 10 16 N/A
4:55 am 04:55 Cloudy 53 11.6 52 11.3 98 98 NE 5 7 30.02 1017 10 16 N/A
5:15 am 05:15 Cloudy 53 11.7 52 11.3 97 97 NE 3 6 30.03 1017 10 16 N/A
5:35 am 05:35 Cloudy 53 11.8 52 11.3 97 97 NE 3 6 30.03 1017 10 16 N/A
5:55 am 05:55 Cloudy 53 11.8 53 11.5 98 98 ENE 5 7 30.03 1017 10 16 N/A
6:15 am 06:15 Cloudy 53 11.8 53 11.4 97 97 NE 3 6 30.03 1017 10 16 N/A
6:35 am 06:35 Cloudy 53 11.8 53 11.6 99 99 NE 3 6 30.04 1017 10 16 N/A
6:55 am 06:55 Cloudy 53 11.8 53 11.7 99 99 ENE 3 6 30.03 1017 10 16 N/A
7:15 am 07:15 Cloudy 54 12 N/A N/A N N/A 30.03 1017 10 16 N/A
7:35 am 07:35 Cloudy 54 12 54 12 100 100 E 3 6 30.01 1016 10 16 N/A
7:55 am 07:55 Cloudy 54 12 N/A N/A ESE 3 6 30.01 1016 7 11 N/A
8:15 am 08:15 Cloudy 54 12 N/A N/A E 3 6 30.00 1016 7 11 N/A
8:35 am 08:35 Cloudy 55 13 N/A N/A E 3 6 30.01 1016 10 16 N/A
8:55 am 08:55 Cloudy 55 12.8 55 12.7 99 99 SSE 5 7 30.02 1017 10 16 N/A
9:15 am 09:15 Cloudy 55 13 55 12.8 99 99 SE 3 6 30.01 1016 10 16 N/A
9:35 am 09:35 Cloudy 56 13.2 55 12.7 97 97 N N/A 30.01 1016 10 16 N/A
9:55 am 09:55 Cloudy with Light Rain 56 13.2 55 12.8 97 97 SSE 5 7 30.03 1017 10 16 N/A
10:15 am 10:15 Cloudy with Light Rain 56 13.1 55 13 99 99 SE 3 6 30.03 1017 5 8 0.02 0.51
10:35 am 10:35 Cloudy with Light Rain 55 13 55 13 100 100 ESE 6 9 30.01 1016 7 11 0.04 1.02
10:55 am 10:55 Cloudy 55 13 N/A N/A S 3 6 30.03 1017 5 8 0.05 1.27
11:15 am 11:15 Cloudy with Light Rain 55 13 N/A N/A SSE 6 9 30.01 1016 5 8 0.01 0.25
11:35 am 11:35 Cloudy with Light Rain 57 14 N/A N/A SSE 3 6 30.01 1016 7 11 0.02 0.51
11:55 am 11:55 Cloudy with Rain 57 14 N/A N/A ESE 5 7 30.00 1016 3 5 0.02 0.51
12:15 pm 12:15 Cloudy with Light Rain 57 14 N/A N/A SE 6 9 29.97 1015 5 8 0.01 0.25
12:35 pm 12:35 Cloudy with Light Rain 57 14 N/A N/A SSE 3 6 29.98 1015 7 11 0.01 0.25
12:55 pm 12:55 Cloudy with Rain 57 14 N/A N/A SE 8 13 29.96 1015 3 5 0.01 0.25
1:15 pm 13:15 Cloudy with Light Rain 57 14 N/A N/A SSE 8 13 29.95 1014 7 11 N/A
1:35 pm 13:35 Cloudy 57 14 N/A N/A S 9 15 29.94 1014 10 16 N/A
1:55 pm 13:55 Cloudy 59 15 N/A N/A S 9 15 29.93 1013 10 16 N/A
2:15 pm 14:15 Cloudy with Rain 59 15 N/A N/A S 10 17 29.94 1014 7 11 N/A
2:35 pm 14:35 Cloudy with Light Rain 59 15 N/A N/A S 10 17 29.91 1013 10 16 N/A
2:55 pm 14:55 Cloudy with Light Rain 59 15 N/A N/A S 8 13 29.89 1012 7 11 N/A
3:15 pm 15:15 Cloudy 61 16 N/A N/A S 7 11 29.88 1012 10 16 N/A
3:35 pm 15:35 Cloudy 61 16 N/A N/A SSW 8 13 29.88 1012 10 16 N/A
3:55 pm 15:55 Cloudy 61 16 N/A N/A SW 5 7 29.89 1012 10 16 N/A
4:15 pm 16:15 Cloudy 61 16 N/A N/A N N/A 29.88 1012 10 16 N/A
4:35 pm 16:35 Cloudy 62 16.9 62 16.8 99 99 N N/A 29.87 1012 10 16 N/A
4:55 pm 16:55 Cloudy 63 17 63 17 100 100 ENE 7 11 29.86 1011 7 11 N/A
5:15 pm 17:15 Cloudy with Nearby Thunderstorms 63 17 N/A N/A NNE 6 9 29.85 1011 10 16 N/A
5:35 pm 17:35 Cloudy 61 16 N/A N/A NNE 5 7 29.84 1011 10 16 N/A
5:55 pm 17:55 Cloudy 63 17 N/A N/A N N/A 29.83 1010 10 16 N/A
6:15 pm 18:15 Mostly Cloudy 63 17 N/A N/A N 7 11 29.83 1010 7 11 N/A
6:35 pm 18:35 Cloudy 61 16 N/A N/A NNW 8 13 29.84 1011 7 11 N/A
6:55 pm 18:55 Mostly Cloudy with Haze 61 16 N/A N/A ENE 3 6 29.83 1010 5 8 N/A
7:15 pm 19:15 Partly Cloudy with Mist and Fog 59 15 N/A N/A ENE 3 6 29.83 1010 2 3 N/A
7:35 pm 19:35 Mostly Cloudy with Fog 59 15 N/A N/A N N/A 29.82 1010 0 0 N/A
7:55 pm 19:55 Mostly Cloudy with Fog 57 14 N/A N/A N N/A 29.81 1009 1 1 N/A
8:15 pm 20:15 Cloudy with Fog 57 14 N/A N/A N N/A 29.81 1009 0 0 N/A
8:35 pm 20:35 Cloudy with Fog 55 13 N/A N/A N N/A 29.81 1010 0 0 N/A
8:55 pm 20:55 Cloudy with Fog 55 13 N/A N/A N N/A 29.80 1009 1 1 N/A
9:15 pm 21:15 Mostly Cloudy with Fog 55 13 N/A N/A W 3 6 29.80 1009 1 1 N/A
9:35 pm 21:35 Clear 59 15 N/A N/A SSW 7 11 29.80 1009 10 16 N/A
9:55 pm 21:55 Clear 64 18 N/A N/A SSW 10 17 29.79 1009 10 16 N/A
10:15 pm 22:15 Clear 66 18.8 64 17.6 93 93 SSW 13 20 29.78 1008 10 16 N/A
10:35 pm 22:35 Clear 68 20.2 62 16.7 80 80 SSW 17 28 29.77 1008 10 16 N/A
10:55 pm 22:55 Clear 69 20.4 62 16.5 78 78 SSW 16 26 29.77 1008 10 16 N/A
11:15 pm 23:15 Clear 69 20.4 61 16.1 76 76 SSW 15 24 29.77 1008 10 16 N/A
11:35 pm 23:35 Clear 68 20.2 60 15.6 75 75 SSW 18 30 29.77 1008 10 16 N/A
11:55 pm 23:55 Clear 68 20.1 59 15.1 73 73 SSW 18 30 29.76 1008 10 16 N/A

Powered by AerisWeather